Location: Phoenix
(33.4480°N, 112.0730°W)
Time: 03:49:02
(UTC+00:00)

ISS - Visible Passes

Search period start: 21 October 2019 00:00
Search period end: 31 October 2019 00:00
Orbit: 411 x 421 km, 51.6° (Epoch: 21 October)

Date Brightness Start Highest point End Pass type
(mag) Time Alt. Az. Time Alt. Az. Time Alt. Az.
22 Oct -0.9 12:30:42 10° S 12:33:09 19° SE 12:35:35 10° E visible
24 Oct -3.5 12:29:52 15° SW 12:32:29 67° SE 12:35:50 10° NE visible
25 Oct -2.0 11:44:19 31° ESE 11:44:19 31° ESE 11:47:01 10° ENE visible
26 Oct -3.0 12:31:26 32° WNW 12:32:00 35° NW 12:35:08 10° NNE visible
27 Oct -1.5 11:45:25 21° NE 11:45:25 21° NE 11:46:42 10° NE visible
28 Oct -1.6 12:32:07 14° NNW 12:32:07 14° NNW 12:33:42 10° N visible
